SCP
0 0 0 0 0 0 0 0 0 0 0 0 0 0 0 0 0 0 0 0 0 0 0 0 0 0 0 0 0 0 0 0 0 0 0 0 0 0 0 0 0 0 0
0 0 0 0 0 0 0 0 0 0 0 0 0 0 0 0 0 0 0 0 0 0 0 0 0 0 0 0 0 0 0 0 0 0 0 0 0 0 0 0 0 0 0
0 0 0 0 0 0 0 0 0 0 0 0 0 0 0 0 0 0 0 0 0 0 0 0 0 0 0 0 0 0 0 0 0 0 0 0 0 0 0 0 0 0 0
0 0 0 0 0 0 0 0 0 0 0 0 0 0 0 0 0 0 0 0 0 0 0 0 0 0 0 0 0 0 0 0 0 0 0 0 0 0 0 0 0 0 0
0 0 0 0 0 0 0 0 0 0 0 0 0 0 0 0 0 0 0 0 0 0 0 0 0 0 0 0 0 0 0 0 0 0 0 0 0 0 0 0 0 0 0
0 0 0 0 0 0 0 0 0 0 0 0 0 0 0 0 0 0 0 0 0 0 0 0 0 0 0 0 0 0 0 0 0 0 0 0 0 0 0 0 0 0 0
0 0 0 0 0 0 0 0 0 0 0 0 0 0 0 0 0 0 0 0 0 0 0 0 0 0 0 0 0 0 0 0 0 0 0 0 0 0 0 0 0 0 0
0 0 0 0 0 0 0 0 0 0 0 0 0 0 0 0 0 0 0 0 0 0 0 0 0 0 0 0 0 0 0 0 0 0 0 0 0 0 0 0 0 0 0
0 0 0 0 0 0 0 0 0 0 0 0 0 0 0 0 0 0 0 0 0 0 0 0 0 0 0 0 0 0 0 0 0 0 0 0 0 0 0 0 0 0 0
0 0 0 0 0 0 0 0 0 0 0 0 0 0 0 0 0 0 0 0 0 0 0 0 0 0 0 0 0 0 0 0 0 0 0 0 0 0 0 0 0 0 0
0 0 0 0 0 0 0 0 0 0 0 0 0 0 0 0 0 0 0 0 0 0 0 0 0 -0 0 0 0 0 0 0 0 0 0 0 0 0 0 0 0 0 0
0 0 0 0 0 0 0 0 0 0 0 0 0 0 0 0 0 0 0 0 0 0 0 0 0 0 0 0 0 0 0 0 0 0 0 0 0 0 0 0 0 0 0
0 0 0 0 0 0 0 0 0 0 0 0 0 0 0 0 0 0 0 0 0 0 0 0 0 0 0 0 0 0 0 0 0 0 0 0 0 0 0 0 0 0 0
0 0 0 0 0 0 0 0 0 0 0 0 0 0 0 0 0 0 0 0 0 0 0 0 0 0 0 0 0 0 0 0 0 0 0 0 0 0 0 0 0 0 0
0 0 0 0 0 0 0 0 0 0 0 0 0 0 0 0 0 0 0 0 0 0 0 0 0 0 0 0 0 0 0 0 0 0 0 0 0 0 0 0 0 0 0
0 0 0 0 0 0 0 0 0 0 0 0 0 0 0 0 0 0 0 0 0 0 0 0 0 0 0 0 0 0 0 0 0 0 0 0 0 0 0 0 0 0 0
0 0 0 0 0 0 0 0 0 0 0 0 0 0 0 0 0 0 0 0 0 0 0 0 0 0 0 0 0 0 0 0 0 0 0 0 0 0 0 0 0 0 0
0 0 0 0 0 0 0 0 0 0 0 0 0 0 0 0 0 0 0 0 0 0 0 0 0 0 0 0 0 0 0 0 0 0 0 0 0 0 0 0 0 0 0
0 0 0 0 0 0 0 0 0 0 0 0 0 0 0 0 0 0 0 0 0 0 0 0 0 0 0 0 0 0 0 0 0 0 0 0 0 0 0 0 0 0 0
0 0 0 0 0 0 0 0 0 0 0 0 0 0 0 0 0 0 0 0 0 0 0 0 0 0 0 0 0 0 0 0 0 0 0 0 0 0 0 0 0 0 0
0 0 0 0 0 0 0 0 0 0 0 0 0 0 0 0 0 0 0 0 0 0 0 0 0 0 0 0 0 0 0 0 0 0 0 0 0 0 0 0 0 0 0
0 0 0 0 0 0 0 0 0 0 0 0 0 0 0 0 0 0 0 0 0 0 0 0 0 0 0 0 0 0 0 0 0 0 0 0 0 0 0 0 0 0 0
0 0 0 0 0 0 0 0 0 0 0 0 0 0 0 0 0 0 0 0 0 0 0 0 0 0 0 0 0 0 0 0 0 0 0 0 0 0 0 0 0 0 0
0 0 0 0 0 0 0 0 0 0 0 0 0 0 0 0 0 0 0 0 0 0 0 0 0 0 0 0 0 0 0 0 0 0 0 0 0 0 0 0 0 0 0
0 0 0 0 0 0 0 0 0 0 0 0 0 0 0 0 0 0 0 0 0 0 0 0 0 0 0 0 0 0 0 0 0 0 0 0 0 0 0 0 0 0 0
0 0 0 0 0 0 0 0 0 0 0 0 0 0 0 0 0 0 0 0 0 0 0 0 0 0 0 0 0 0 0 0 0 0 0 0 0 0 0 0 0 0 0
Wind_Speed
9 11 11 10 11 11 11 12 12 12 12 11 11 12 12 13 15 15 16 16 17 17 17 17 17 16 16 15 15 14 13 12 11 11 13 16 17 17 18 18 14 11 16
12 12 10 10 10 10 10 11 11 11 11 11 11 11 12 13 14 15 15 16 16 17 17 17 17 16 15 15 14 13 11 10 8 7 6 11 15 16 17 16 15 12 17
11 13 9 9 10 10 10 10 10 11 11 10 10 11 11 12 13 15 15 16 16 17 17 17 16 16 15 14 13 12 11 10 10 10 6 4 9 14 15 15 16 16 17
9 12 9 9 9 9 9 9 9 10 10 10 10 10 11 11 13 14 15 16 16 17 17 17 16 16 15 14 14 13 11 11 12 12 6 7 7 13 14 14 15 15 16
7 9 11 10 9 9 8 8 8 9 9 9 9 9 10 11 12 14 15 16 17 17 17 17 17 16 15 15 14 13 13 13 13 8 8 10 7 12 14 13 13 13 14
6 9 11 9 8 8 8 7 7 8 8 8 8 8 9 10 12 14 15 16 16 17 17 17 17 16 15 15 15 14 14 15 9 6 10 11 8 13 14 13 12 12 12
7 7 8 7 6 7 8 7 7 7 7 7 7 7 8 9 12 13 15 15 16 16 17 17 16 16 15 15 15 15 15 16 8 8 10 10 10 14 15 15 13 12 12
8 7 6 5 4 5 6 7 7 7 7 6 6 6 7 8 11 13 14 14 15 15 15 15 15 15 14 14 14 14 14 13 9 9 10 9 13 14 14 14 13 12 12
7 6 5 3 2 2 4 5 6 7 7 6 5 5 6 7 9 11 12 13 13 13 14 14 14 14 14 13 12 12 13 13 8 8 10 7 14 14 13 13 13 12 11
6 6 5 4 2 0 2 5 5 5 5 5 5 5 5 7 8 10 10 11 12 12 12 12 12 12 12 12 11 10 11 9 7 8 6 8 14 14 13 12 12 11 11
6 5 4 4 3 2 1 4 5 5 4 4 4 6 5 4 6 7 9 10 10 10 11 11 10 9 8 8 8 8 7 4 5 5 5 10 14 14 13 13 12 11 10
5 5 4 4 3 2 1 1 3 4 4 4 3 5 4 3 4 6 10 9 9 8 9 9 7 5 4 3 4 6 3 5 4 4 5 11 12 13 13 13 13 12 10
6 6 6 5 2 1 1 1 1 1 2 2 3 2 2 3 4 5 4 4 4 5 4 4 3 4 4 4 3 3 4 4 3 3 4 9 11 11 12 12 12 13 12
6 6 6 6 2 1 0 1 3 4 5 5 7 7 4 4 4 5 4 3 3 2 3 3 3 4 4 4 4 4 5 3 3 2 3 8 10 12 12 12 12 13 14
6 6 7 6 2 3 3 5 7 7 7 7 7 8 8 6 7 7 5 5 5 4 5 4 4 5 5 5 4 5 5 5 5 4 3 6 11 14 14 14 14 13 14
5 5 6 7 7 7 8 8 7 7 7 7 7 9 9 7 7 7 7 6 6 5 5 5 5 5 4 3 4 4 5 5 5 6 5 6 10 14 17 17 17 16 15
4 4 5 6 8 9 10 9 8 7 7 7 7 9 9 9 8 8 7 6 5 4 5 4 5 4 4 4 4 4 3 4 5 7 7 7 7 11 17 19 19 18 18
4 4 5 6 8 9 9 9 8 8 8 7 6 7 9 9 9 7 7 6 5 4 5 5 5 4 4 4 3 3 3 4 7 7 7 7 6 7 11 19 19 20 20
4 5 6 6 8 9 10 10 10 8 8 7 6 7 8 9 9 8 7 6 6 6 5 5 6 5 4 5 3 2 3 5 6 6 7 7 7 7 6 13 18 19 20
4 5 6 6 7 7 8 9 8 9 8 7 7 7 9 8 9 8 8 8 7 7 6 5 6 6 5 4 3 2 4 5 5 5 6 6 6 8 8 8 7 11 19
4 5 5 6 5 5 5 5 6 6 6 6 7 9 9 9 9 8 8 8 7 7 7 7 5 6 7 6 4 4 4 5 5 4 4 5 6 7 7 7 6 6 7
6 5 5 5 4 4 5 5 5 6 6 6 5 8 9 9 9 9 8 7 7 7 8 8 6 4 5 7 4 3 3 3 5 3 4 5 5 5 6 7 7 7 6
6 5 5 5 6 7 8 8 8 6 5 5 6 6 7 8 9 8 8 7 7 7 7 7 7 7 5 5 6 5 4 3 4 3 4 4 6 5 5 5 6 7 7
6 6 6 6 7 8 8 7 8 7 6 5 5 5 7 8 8 8 8 8 7 6 7 7 7 6 5 4 4 4 3 1 2 4 4 4 7 6 6 7 7 6 6
7 6 6 6 7 7 6 7 9 9 8 7 6 8 7 6 7 7 7 7 7 6 7 7 7 7 5 4 4 3 3 3 4 1 5 5 5 4 6 7 5 5 5
7 6 6 7 6 6 8 8 10 12 11 10 8 7 5 4 5 6 7 6 6 5 6 6 6 6 5 5 4 3 3 2 3 2 3 5 5 4 7 5 4 5 6
Wind_Direction
116 125 130 122 115 111 109 107 103 99 97 95 92 89 87 88 88 83 78 74 69 64 58 53 49 46 44 44 46 49 50 50 51 57 63 61 55 50 47 42 44 46 52
119 127 130 124 118 112 108 105 104 103 100 96 90 86 84 87 89 85 79 74 69 63 57 51 47 43 40 39 40 42 42 32 18 24 54 68 62 55 52 49 47 48 50
115 126 132 122 118 113 110 109 110 108 104 98 91 86 84 88 91 87 81 75 69 63 57 51 47 43 39 37 37 37 31 15 356 351 349 88 70 61 57 54 51 49 48
116 132 138 123 116 112 109 109 111 110 106 100 94 89 88 91 92 87 82 76 69 63 57 52 48 43 40 39 38 35 24 5 349 343 25 58 64 63 59 56 53 50 49
103 123 124 127 120 115 110 109 110 110 108 103 98 95 93 94 94 91 85 79 72 65 58 53 49 45 43 42 40 33 20 3 343 345 43 51 47 54 56 54 54 52 47
85 106 123 126 127 126 121 118 117 118 118 114 109 105 102 101 100 97 92 86 78 71 64 57 52 47 45 44 40 31 18 1 356 36 54 47 35 39 45 45 46 46 44
55 76 114 107 125 135 139 138 136 135 132 128 123 116 112 111 111 107 102 95 87 79 71 65 58 52 48 45 38 28 19 5 14 43 56 42 26 36 37 34 34 35 36
49 53 81 75 98 132 148 152 151 150 148 146 140 131 125 122 121 117 110 104 97 88 81 73 67 61 55 48 40 29 18 9 22 39 56 34 20 32 36 32 28 28 29
52 45 58 63 88 144 158 162 162 164 164 164 157 147 139 133 128 124 118 114 107 99 90 81 74 69 63 55 46 31 14 12 27 39 47 28 18 24 30 30 27 25 25
66 45 35 39 28 84 182 181 172 173 177 174 169 163 157 148 138 135 130 127 121 112 101 91 83 77 70 62 51 33 23 27 38 51 40 20 20 20 22 23 22 21 21
70 51 30 16 16 351 291 163 173 180 188 186 188 186 175 172 155 147 143 139 132 121 109 97 89 90 87 70 51 37 36 30 51 67 44 23 24 21 19 17 15 16 16
49 46 25 8 6 335 315 167 186 181 176 191 198 180 190 179 142 134 138 139 132 122 108 97 91 81 63 62 53 45 27 36 45 74 52 35 28 24 21 17 13 11 10
35 34 14 346 313 280 249 240 129 97 94 75 38 59 114 106 107 106 115 117 114 116 100 96 72 54 55 43 38 41 32 38 35 57 60 40 30 25 23 20 16 11 7
35 20 356 327 295 154 96 73 65 65 59 51 37 34 60 75 78 84 81 78 69 57 63 58 55 55 52 47 39 32 33 31 27 35 63 45 31 24 22 20 17 12 9
33 13 348 336 15 93 80 68 66 63 62 55 43 36 50 70 74 74 70 64 55 50 48 45 45 44 39 31 29 29 20 22 25 22 46 49 36 26 21 18 14 9 5
38 14 3 15 43 71 76 75 72 70 66 59 50 44 52 67 76 77 71 63 55 53 54 51 48 44 38 21 17 21 14 17 20 24 29 37 41 34 26 20 15 9 4
53 34 32 41 57 73 78 78 75 71 69 64 58 52 57 66 74 78 75 68 58 57 62 56 49 47 35 20 7 7 15 30 32 33 36 35 28 28 26 22 17 12 7
78 66 56 67 74 78 81 79 76 71 69 65 60 59 62 67 73 77 74 69 63 60 59 57 41 41 29 15 1 0 23 43 44 50 51 44 35 28 19 22 18 12 7
98 93 85 83 87 89 88 84 78 72 66 60 56 57 58 63 67 71 67 59 53 51 46 55 49 36 21 359 339 1 58 62 54 58 61 50 39 30 20 17 15 8 4
113 112 108 105 103 102 97 92 84 72 63 58 55 55 57 59 62 69 68 59 55 55 44 41 56 39 19 348 340 38 87 84 68 59 57 50 38 27 16 14 9 2 1
130 130 129 127 129 124 114 103 94 83 74 64 59 58 58 59 61 67 70 64 59 59 50 39 46 46 25 2 19 29 60 82 68 75 65 55 37 23 10 9 2 357 351
145 142 135 134 124 97 91 93 95 101 87 78 67 62 59 59 61 70 68 67 63 61 51 41 38 48 39 25 29 37 14 0 18 42 61 57 34 15 3 358 356 349 342
144 140 134 126 113 108 108 109 111 100 91 74 66 65 59 62 63 66 66 67 63 64 60 47 39 49 49 25 34 56 65 356 322 338 26 44 22 4 349 340 341 333 332
137 130 126 124 122 126 132 136 133 124 119 109 101 86 69 61 64 65 66 66 65 61 59 51 44 44 55 38 17 26 62 55 16 322 322 11 7 348 340 332 321 315 319
139 137 130 127 130 137 133 123 118 116 116 116 111 99 85 69 65 66 67 68 67 63 61 56 48 44 46 52 40 14 3 10 41 325 305 326 330 320 321 309 301 308 318
138 136 135 131 125 121 119 120 128 131 133 131 126 118 107 94 80 74 74 70 70 69 66 61 57 52 47 48 44 38 33 16 4 348 307 312 310 301 301 297 318 330 320